Regional Weather Roundup
Issued by NWS

Home | Current Version | Previous Version | Text Only | Print | Product List | Glossary Off
Versions: 1 2 3 4 5 6 7 8 9 10 11 12 13 14 15 16 17 18 19 20 21 22 23 24 25 26 27 28 29 30 31 32 33 34 35 36 37 38 39 40 41 42 43 44 45 46 47 48 49 50

000
ASUS43 KOAX 221610
RWRNE

WEATHER ROUNDUP FOR NEBRASKA
NATIONAL WEATHER SERVICE OMAHA NE
1100 AM CDT MON MAY 22 2017

NOTES: SATELLITE DATA IS BEING USED TO AUGMENT CLOUD COVER ABOVE
       12000 FEET.
       "FAIR" INDICATES FEW OR NO CLOUDS BELOW 12,000 FEET WITH NO
       SIGNIFICANT WEATHER AND/OR OBSTRUCTIONS TO VISIBILITY.

  * THESE STATIONS DO NOT REPORT WEATHER SUCH AS RAIN...SNOW OR FOG.

NEZ001>004-019>022-054>056-221700-
NEBRASKA PANHANDLE

CITY           SKY/WX    TMP DP  RH WIND       PRES   REMARKS
SCOTTSBLUFF    MOSUNNY   54  42  64 NW13      30.10S
ALLIANCE       PTSUNNY   57  41  55 N13       30.06S
CHADRON        CLOUDY    55  44  66 W10       30.06S
GORDON         FAIR      55  44  66 W12       30.03S
KIMBALL        SUNNY     62  34  35 NW17G23   30.11F
SIDNEY         SUNNY     60  41  49 NW17      30.09F
$$

NEZ057>060-069>072-079>082-221700-
SOUTHWEST NEBRASKA

CITY           SKY/WX    TMP DP  RH WIND       PRES   REMARKS
NORTH PLATTE   SUNNY     65  49  56 W13       30.02F
IMPERIAL       SUNNY     65  41  41 NW14      30.06F
LEXINGTON      SUNNY     64  49  59 W9        30.02F
MCCOOK         CLOUDY    64  49  57 W10       30.04F
OGALLALA       SUNNY     65  46  48 W14       30.05F
$$

NEZ005>010-023>029-035>040-094-221700-
NORTH CENTRAL NEBRASKA

CITY           SKY/WX    TMP DP  RH WIND       PRES   REMARKS
VALENTINE      LGT RAIN  51  46  83 W10       30.02R
AINSWORTH      LGT RAIN  55  46  72 NW17G26   30.02R
BROKEN BOW     SUNNY     67  46  47 NW18      29.99F
O`NEILL        SUNNY     64  44  47 NW20      29.97S
ORD            SUNNY     65  45  48 NW13      29.95F
THEDFORD       PTSUNNY   61  45  55 N9        30.02F
$$

NEZ041-046>049-061>064-073>077-083>087-221700-
SOUTH CENTRAL NEBRASKA

CITY           SKY/WX    TMP DP  RH WIND       PRES   REMARKS
GRAND ISLAND   CLOUDY    65  49  56 W10       29.98F
AURORA         CLOUDY    65  46  51 W10       29.97F
HASTINGS       PTSUNNY   65  47  52 W8        30.00F
HEBRON         CLOUDY    59  54  82 SW10      30.03R
HOLDREGE       CLOUDY    64  44  49 NW3       30.01F
KEARNEY *      CLOUDY    64  45  48 NW10      30.00F
YORK           MOSUNNY   64  46  52 W12       29.97F
$$

NEZ011>018-030>034-042>045-221700-
NORTHEAST NEBRASKA

CITY           SKY/WX    TMP DP  RH WIND       PRES   REMARKS
NORFOLK        SUNNY     67  43  41 NW13      29.92F
ALBION         SUNNY     68  44  42 NW13G20   29.94F
BLAIR          CLOUDY    66  51  57 W9        29.94F
FREMONT        SUNNY     65  50  57 W8        29.94F
TEKAMAH        SUNNY     67  50  54 W14       29.91F
WAYNE          SUNNY     66  48  52 W14       29.91F
$$

NEZ050>053-065>068-078-088>093-221700-
SOUTHEAST NEBRASKA

CITY           SKY/WX    TMP DP  RH WIND       PRES   REMARKS
LINCOLN        PTSUNNY   66  50  56 SW7       29.97F
OMAHA EPPLEY   CLOUDY    68  48  48 W8        29.94S
BEATRICE       LGT RAIN  60  56  85 SW10      30.01R
FALLS CITY     CLOUDY    62  55  77 SW15G23   30.01R
NEBRASKA CITY  PTSUNNY   62  51  67 W12       29.99R
PLATTSMOUTH    CLOUDY    65  46  51 SW10      29.96F
$$

NEZ044-045-051>053-067-221700-
OMAHA AREA

CITY           SKY/WX    TMP DP  RH WIND       PRES   REMARKS
OMAHA EPPLEY   CLOUDY    68  48  48 W8        29.94S
BLAIR          CLOUDY    66  51  57 W9        29.94F
FREMONT        SUNNY     65  50  57 W8        29.94F
MILLARD        MOSUNNY   67  51  56 W6        29.94F
OFFUTT AFB     PTSUNNY   65  51  60 SW9       29.94F
PLATTSMOUTH    CLOUDY    65  46  51 SW10      29.96F
WAHOO          FAIR      67  46  47 W12       29.94F
$$




USA.gov is the U.S. government's official web portal to all federal, state and local government web resources and services.